Wind_Speed
105 104 101 98 96 96 98 100 101 101 99 99 98 97 94 92 91 90 91 92 93 92 88 86 83 79 76 75 78 82 78 70 67 67 64 63 64 64 63 61 59 57 56 54 52 51 49 49 49 49 50 51 53 54 56 57 58 59 59 60 61 62 63 64 66 67 68 69 70 72 74 75 75 77 82 87 88 87 87 90 89 86 83 82 81 79
107 104 100 99 99 100 103 103 103 101 100 99 98 97 95 93 91 91 93 93 93 92 87 85 83 77 74 73 75 80 77 69 67 66 63 63 62 62 61 59 58 57 56 53 51 50 49 49 50 50 51 52 53 54 55 57 58 59 60 61 62 63 65 66 67 68 69 70 71 72 72 72 73 78 84 88 90 88 89 93 94 91 88 86 84 81
105 102 99 100 101 103 104 104 103 101 100 99 98 96 94 92 91 92 94 94 93 91 87 85 83 76 73 72 72 76 75 69 67 65 62 61 61 60 59 57 57 56 54 52 50 49 49 50 51 51 53 53 54 54 55 57 59 60 61 62 64 65 67 68 69 70 69 70 72 71 69 70 74 81 87 90 91 91 91 95 97 94 91 89 86 83
103 101 99 101 102 103 103 102 102 101 99 98 96 95 93 92 92 93 94 94 93 91 87 85 83 75 71 70 69 72 73 69 67 65 62 60 59 59 58 56 56 55 53 51 50 49 49 50 51 52 54 55 55 55 56 58 60 61 62 64 65 67 68 70 71 71 69 69 69 69 68 70 76 83 89 90 91 90 91 94 97 95 92 89 87 85
101 100 101 101 102 103 102 102 101 100 99 97 96 95 93 93 94 94 94 93 92 90 87 85 82 74 68 67 66 69 71 69 68 65 61 60 59 59 57 56 55 53 53 51 49 49 50 51 52 53 55 55 56 56 57 59 61 62 64 65 67 68 69 71 73 71 67 65 65 66 67 70 75 80 83 83 83 85 86 91 94 94 93 90 88 86
99 99 100 100 102 102 102 100 100 100 99 98 97 95 94 94 95 94 93 93 92 90 86 84 80 70 64 64 65 68 70 68 67 64 61 61 60 58 56 56 54 52 52 51 50 50 50 51 52 53 55 55 56 57 58 60 61 63 64 66 67 69 71 72 73 69 64 61 61 62 64 65 67 69 71 71 73 76 79 86 90 92 93 91 88 84
95 96 97 98 100 101 101 100 99 99 99 97 96 95 95 95 94 94 93 93 91 87 83 81 78 68 61 61 63 66 68 67 66 63 61 62 60 56 55 55 53 51 51 51 50 50 50 50 52 53 54 55 56 58 59 60 61 63 64 66 68 69 71 73 72 66 60 58 58 57 57 58 58 57 57 59 63 67 72 79 85 88 91 90 85 79
93 94 96 96 98 99 99 98 98 99 99 97 96 95 95 95 94 93 92 91 88 84 80 77 76 70 59 57 60 64 66 66 64 63 63 62 59 55 55 55 52 51 51 51 51 50 50 51 52 53 53 54 56 57 58 59 60 62 63 65 67 69 71 72 70 64 58 56 54 51 49 49 49 46 44 48 54 59 65 72 77 82 87 86 80 75
95 96 97 97 96 97 96 95 96 99 98 96 94 93 93 93 92 91 89 88 85 82 78 73 75 74 59 53 58 62 64 64 63 64 64 62 59 56 55 54 52 51 50 51 51 50 51 52 52 53 53 53 55 56 57 58 59 61 62 64 66 67 70 71 68 63 57 54 50 45 40 39 36 33 34 38 46 53 59 66 71 77 81 80 75 72
97 96 97 97 96 94 94 95 96 97 96 94 93 91 91 91 90 89 88 86 86 83 77 73 75 75 62 53 57 58 60 63 64 65 65 62 60 58 56 54 52 50 51 51 52 51 51 52 52 53 53 54 55 55 56 57 58 59 60 63 65 66 69 69 66 62 58 54 45 36 30 26 23 23 26 31 38 46 53 60 66 71 74 74 72 69
96 96 97 97 96 95 95 96 97 97 96 94 93 91 91 91 90 90 89 88 88 83 76 73 74 76 67 55 54 56 57 61 64 65 64 63 62 59 56 54 51 50 51 52 51 51 51 52 53 54 53 54 54 54 55 56 57 57 58 61 63 64 67 67 63 59 56 51 38 26 19 15 13 16 20 25 32 39 47 55 61 64 64 63 64 65
93 94 95 95 96 97 97 97 98 98 97 95 94 93 93 93 93 93 91 90 89 82 76 75 75 77 70 55 52 55 57 62 66 64 64 64 63 60 56 53 51 51 51 51 51 51 51 52 53 54 53 54 53 53 54 55 55 56 56 59 60 61 63 64 60 55 52 45 33 24 18 14 10 11 15 20 27 37 48 55 57 59 60 57 60 63
90 91 92 94 96 97 97 98 99 99 98 97 96 95 95 96 95 95 93 91 89 82 78 78 78 77 69 57 54 55 56 62 66 65 64 66 64 61 58 53 51 51 51 51 52 52 52 52 53 54 53 53 52 52 54 54 54 54 54 56 58 58 59 61 57 50 46 40 32 27 21 13 7 9 16 23 31 41 50 57 57 59 63 63 64 66
90 89 90 90 91 93 95 96 97 97 98 98 98 98 98 98 98 96 93 91 89 85 81 80 79 75 65 58 57 56 56 60 64 65 64 65 65 62 58 54 52 52 51 52 53 53 52 52 52 53 53 52 52 52 54 55 53 53 52 53 55 54 54 57 54 46 40 35 29 25 17 9 5 15 22 29 37 43 48 57 62 65 66 65 65 66
91 89 87 87 87 89 91 93 94 96 98 99 99 100 99 98 97 94 92 91 89 86 84 82 79 71 62 59 58 58 59 60 64 66 65 65 66 63 58 55 54 54 53 53 54 54 52 52 52 53 52 52 52 52 54 55 53 52 51 51 53 51 49 52 51 42 35 29 24 17 10 7 12 21 27 33 40 43 45 52 62 68 70 68 67 65
94 91 88 88 88 88 89 91 93 96 98 99 99 99 97 94 94 94 93 92 90 88 86 82 77 69 64 62 60 60 61 60 63 67 68 68 67 63 58 57 56 55 54 55 55 54 53 52 52 52 52 52 52 53 54 55 54 52 50 49 51 49 44 46 47 40 31 24 17 11 8 13 19 24 28 34 38 42 45 47 53 62 67 68 67 64
97 94 91 92 92 90 91 92 93 95 96 97 97 95 93 92 95 96 95 92 92 90 85 80 75 69 66 63 59 60 60 60 62 67 71 70 67 63 60 58 57 56 56 57 56 54 53 52 52 52 52 51 52 53 53 54 55 53 51 49 49 48 41 40 41 38 30 21 13 11 13 17 22 26 31 33 35 38 42 46 51 57 62 65 65 62
102 99 95 95 94 93 93 93 94 94 95 95 93 90 91 94 95 96 95 92 90 87 81 77 73 69 66 61 58 60 62 62 64 68 71 71 68 65 61 59 58 57 57 58 57 55 53 52 52 51 51 51 52 52 53 55 56 54 53 50 48 47 40 34 34 34 29 22 16 15 19 23 25 29 33 35 36 38 41 45 52 56 58 59 60 58
105 104 101 98 97 96 96 97 96 94 93 91 89 88 91 93 92 92 93 90 87 86 81 76 73 69 65 60 58 62 65 65 66 68 69 70 68 66 62 60 59 58 58 58 57 55 53 52 52 51 51 51 51 53 55 56 56 54 54 51 48 47 41 33 30 30 28 23 20 20 25 32 33 34 38 39 41 43 45 48 51 52 53 54 55 56
109 108 106 103 102 101 101 100 97 93 92 91 90 89 90 91 90 90 92 89 87 87 82 76 73 67 63 61 61 63 66 66 67 66 68 68 68 66 63 61 60 59 58 58 57 55 53 52 52 52 52 51 51 54 56 56 55 54 54 52 49 46 42 34 28 26 27 25 22 22 26 35 41 42 45 49 51 51 51 53 53 52 53 55 56 58
112 112 110 107 106 105 103 100 96 94 95 95 94 92 91 91 91 91 91 90 88 86 81 75 69 61 61 64 65 65 67 68 67 66 67 68 68 67 65 62 61 60 59 59 58 55 53 52 53 53 52 50 51 54 56 56 56 54 53 53 50 46 42 37 30 25 25 25 24 25 28 33 41 47 50 54 58 59 58 56 54 54 55 57 61 63
115 114 113 111 109 107 104 102 101 100 100 99 98 96 94 94 94 93 92 89 87 84 78 73 64 56 59 64 65 66 68 68 68 67 67 69 71 69 66 63 62 61 60 60 58 55 54 54 54 53 52 51 52 54 55 56 55 54 53 52 50 46 42 38 32 27 25 25 25 30 33 33 37 44 51 58 61 62 62 60 57 57 58 60 63 66
119 119 119 116 113 110 108 108 107 106 105 104 103 100 97 95 94 93 90 86 86 83 78 74 64 53 56 63 65 67 69 68 69 69 69 72 73 71 67 64 62 61 61 60 58 57 56 55 55 54 53 53 53 54 55 56 55 54 53 52 50 46 42 38 34 29 27 25 26 32 38 38 39 41 46 54 64 67 66 65 64 64 66 67 68 68
124 124 122 120 117 115 113 112 111 111 109 108 105 100 98 96 93 93 92 89 89 85 79 77 66 50 52 63 67 69 69 68 69 70 71 74 75 73 68 65 63 62 61 60 59 59 58 56 56 56 55 55 55 55 55 55 55 54 53 52 50 46 42 39 36 32 28 27 27 32 41 44 44 46 47 48 56 65 68 67 67 66 66 69 71 72
127 127 126 124 122 121 119 117 114 113 110 107 104 102 101 99 97 97 96 93 91 85 80 81 69 52 54 64 68 69 69 68 69 70 72 77 79 76 70 66 64 63 62 61 61 59 58 58 58 58 57 57 57 56 55 55 55 55 53 52 50 46 42 39 37 34 31 29 28 32 44 51 49 50 54 53 52 56 61 64 65 65 65 66 68 71
132 132 131 129 128 126 123 119 115 113 112 110 108 106 105 103 103 102 101 100 96 87 84 85 74 60 61 67 69 69 67 67 70 71 73 79 82 78 72 67 65 63 62 62 62 62 61 61 60 59 58 58 58 58 56 55 55 54 53 52 51 47 42 39 38 36 34 32 30 30 39 54 58 54 54 58 59 59 60 61 63 64 65 65 66 68
136 136 135 134 131 128 124 120 117 116 116 115 112 111 109 108 109 108 108 106 99 91 90 87 77 68 66 66 67 67 65 68 71 72 77 83 84 78 72 68 66 65 65 66 65 64 63 62 61 60 60 60 60 58 56 56 55 54 53 52 51 48 44 41 39 37 36 34 34 33 34 47 61 63 58 57 60 64 65 64 64 65 66 66 67 68
140 140 138 135 133 129 124 121 120 120 119 118 116 114 113 112 112 112 111 106 100 97 95 85 77 72 65 64 69 69 67 70 71 73 80 84 82 77 74 73 71 70 70 69 67 65 64 64 62 61 62 62 60 59 58 57 55 54 53 51 50 48 46 44 41 39 38 36 36 36 36 39 51 63 66 63 62 64 66 67 67 68 68 69 70 71
142 141 138 136 133 129 125 124 124 124 123 121 119 118 117 116 116 115 112 106 103 104 97 84 79 76 68 69 74 73 71 72 71 73 79 83 82 80 80 81 79 76 72 69 67 66 65 64 62 63 64 63 61 60 60 58 55 53 52 50 49 48 48 46 44 42 40 39 38 38 39 39 43 52 63 68 69 70 70 70 70 71 72 72 72 72
141 141 138 136 134 131 127 127 127 127 126 125 123 122 120 119 119 118 115 111 108 107 99 86 83 82 76 75 78 77 76 76 74 75 79 84 86 86 86 87 84 78 73 69 68 67 66 64 64 65 66 65 63 62 60 57 55 53 51 50 48 47 47 48 47 45 43 42 40 40 41 42 43 45 51 59 67 72 74 75 75 75 76 76 76 75
139 139 137 135 135 133 129 129 130 129 128 127 126 125 124 124 123 121 118 113 109 106 99 91 88 86 81 81 82 82 81 80 79 80 82 88 91 90 88 87 84 79 74 71 70 69 67 66 66 67 68 67 66 64 60 57 56 53 50 49 46 44 46 48 48 47 46 45 44 43 42 44 45 46 47 51 56 63 69 74 77 79 79 79 79 79
137 137 135 134 136 134 129 128 129 129 130 130 129 128 128 127 125 122 117 112 109 107 104 100 95 88 85 88 89 87 84 84 84 85 87 91 93 89 87 86 84 81 77 73 72 71 70 70 69 70 71 69 67 65 61 58 57 54 50 48 46 44 46 47 47 47 48 48 47 46 45 45 46 47 48 50 52 55 59 64 69 74 78 82 84 85
136 136 134 134 135 133 127 125 127 130 134 135 132 128 126 124 122 121 117 114 113 111 110 106 98 91 91 95 95 91 88 88 88 90 91 92 91 89 87 86 85 84 80 75 74 75 75 74 73 74 73 71 69 67 65 61 59 55 51 48 47 46 47 46 45 46 47 48 49 49 49 48 47 48 49 50 52 54 55 58 60 63 66 71 77 82
136 136 134 133 134 133 127 123 127 134 138 135 128 123 121 121 121 122 121 118 117 116 114 108 101 97 98 99 97 94 93 93 93 94 94 92 91 91 90 88 87 86 84 81 80 81 80 77 76 76 75 72 70 69 67 64 61 57 51 48 47 46 45 45 44 44 45 46 48 50 50 50 50 49 50 51 52 54 56 57 58 60 61 62 65 69
136 136 133 131 132 131 126 125 131 138 137 130 121 117 118 121 123 125 124 121 118 117 115 110 104 101 101 100 99 98 99 99 99 99 96 94 94 93 92 90 90 90 91 90 87 85 82 78 77 76 75 74 72 71 68 65 63 59 53 50 48 46 45 45 45 45 45 45 48 49 50 51 51 52 52 52 53 54 56 57 58 59 61 62 63 64
133 134 133 131 131 130 127 128 133 136 133 126 121 118 121 125 126 126 122 116 113 114 114 112 108 105 105 104 102 103 103 104 105 101 96 95 97 97 95 95 97 97 96 93 89 85 82 79 77 76 76 75 73 71 69 66 64 62 56 53 51 50 49 48 48 48 47 47 48 49 50 51 52 53 53 53 54 55 56 57 58 59 60 61 62 63
130 131 132 132 133 132 130 129 130 133 134 131 127 123 123 124 123 121 118 112 111 114 116 115 112 109 108 107 106 106 107 108 106 99 93 95 99 100 100 101 103 101 97 92 89 86 83 81 79 77 77 76 74 72 69 67 66 65 61 57 55 53 52 51 51 51 50 49 49 50 51 52 53 53 54 54 55 56 57 58 59 59 60 61 62 63
126 128 130 133 134 134 134 132 131 134 136 134 128 122 120 121 120 121 121 116 113 115 117 115 110 108 108 109 109 110 111 111 105 95 90 95 100 103 105 105 103 101 96 92 89 86 84 82 81 79 78 77 75 73 70 68 68 68 64 60 57 56 55 54 54 54 52 52 51 51 51 52 53 54 54 55 56 56 57 59 59 60 60 61 62 63
123 126 128 132 134 135 137 137 135 135 135 132 126 120 119 121 122 125 128 122 114 113 115 113 108 106 106 108 111 113 116 113 103 93 93 97 102 106 107 104 101 100 97 93 90 87 86 85 83 81 80 78 76 75 73 71 71 69 67 63 61 58 57 56 56 56 55 54 54 53 53 53 54 55 55 56 57 57 57 58 59 59 60 61 62 62
120 123 126 130 133 134 136 138 138 137 135 130 123 118 118 121 123 129 134 128 116 111 112 112 109 107 108 110 112 113 114 110 100 97 100 103 104 106 106 102 100 100 98 94 92 90 88 87 85 83 81 80 79 78 76 74 72 70 69 68 65 61 58 58 57 56 56 57 56 56 56 55 54 55 55 56 57 57 58 58 58 58 59 61 61 61
118 122 125 128 129 130 133 136 138 138 136 131 124 118 117 121 126 132 134 128 117 111 110 111 112 111 112 114 113 112 111 106 101 101 106 106 104 103 103 101 101 100 98 95 93 91 89 88 86 84 82 82 81 78 76 74 73 72 72 72 69 64 61 60 58 56 57 59 59 59 59 58 57 56 55 56 56 57 58 58 59 59 60 60 61 61
116 121 125 127 128 128 130 133 137 138 137 133 127 120 119 123 128 130 129 125 119 113 110 112 114 114 115 116 115 113 111 108 103 103 106 106 104 103 102 101 100 99 98 96 93 91 90 88 86 85 84 83 81 79 77 77 75 74 74 74 73 69 65 62 59 58 59 60 61 61 61 61 59 58 57 57 57 58 59 60 61 61 61 61 60 61
113 119 123 125 126 128 129 132 136 137 136 134 129 123 119 120 124 125 124 122 119 115 113 115 116 116 116 116 114 113 112 109 106 104 106 106 104 104 103 102 101 100 98 96 94 92 91 89 88 88 86 85 83 81 80 80 79 78 78 77 77 74 69 64 62 61 61 62 63 63 62 62 61 60 60 60 59 60 61 62 62 62 62 62 62 62
110 115 119 122 125 128 131 132 135 136 134 132 129 124 118 117 120 123 123 121 119 118 118 119 119 118 118 118 117 114 112 110 107 106 107 107 106 105 105 104 104 102 99 97 95 94 93 91 90 90 88 86 85 83 83 83 82 81 81 80 80 78 73 68 64 63 63 64 65 65 64 63 62 62 62 62 62 63 63 64 63 63 63 63 64 65
106 110 115 119 122 126 129 130 132 133 133 131 128 124 121 119 120 123 124 122 121 122 122 122 121 121 122 123 122 119 116 113 111 109 109 109 108 108 108 107 107 105 102 99 96 95 94 93 92 91 90 89 87 86 86 85 85 84 84 83 83 81 76 71 67 65 66 67 68 67 66 65 64 63 63 64 66 66 65 64 63 63 63 64 66 67
101 106 111 115 118 121 124 126 128 129 129 128 126 124 121 120 119 121 123 123 123 123 123 122 122 122 124 126 125 123 119 116 113 111 110 111 111 111 110 110 109 107 104 101 99 97 96 95 94 94 93 91 90 89 88 88 88 87 86 86 84 83 79 75 72 71 70 69 69 69 67 66 66 65 66 67 69 68 66 64 63 63 63 64 66 67
99 103 108 112 114 115 118 121 123 125 126 127 126 125 123 121 119 119 120 121 122 123 123 122 122 123 125 126 125 123 121 119 116 114 112 112 112 112 112 111 110 108 106 103 101 99 98 97 96 96 95 95 94 93 92 91 91 90 89 88 87 85 83 80 77 75 73 71 70 70 69 68 68 69 69 70 70 68 66 65 64 63 63 64 65 66
97 101 105 108 109 109 111 115 118 121 123 124 125 124 122 121 119 118 118 119 121 123 123 122 123 124 124 124 123 122 120 119 117 115 113 112 112 112 112 110 109 107 106 105 103 102 100 99 99 99 98 98 97 96 96 95 94 94 92 91 90 88 86 83 81 78 75 73 72 71 71 71 71 71 71 70 69 68 67 66 65 65 65 65 65 65
95 98 100 102 104 104 106 110 115 118 120 119 120 121 120 120 118 117 118 119 121 123 123 123 123 124 124 124 122 121 118 116 115 113 112 111 111 111 110 108 106 105 105 105 104 104 103 102 101 101 101 101 100 99 98 98 97 96 95 93 92 90 88 86 83 80 78 75 74 73 73 73 72 72 71 70 70 69 68 67 67 66 66 66 66 66
91 93 94 98 101 101 102 107 111 115 115 113 115 118 118 118 117 116 116 118 121 123 123 122 122 123 123 122 121 120 118 115 113 111 110 110 110 110 108 106 104 103 103 104 104 104 103 103 103 102 102 102 101 101 100 100 99 98 96 94 92 90 88 86 84 81 79 77 74 73 72 72 72 72 72 72 71 71 70 69 68 68 68 68 67 68
86 87 90 97 100 98 99 104 109 112 111 108 110 114 115 115 114 113 113 117 120 122 122 121 121 121 121 121 121 120 119 116 113 111 109 109 109 108 106 105 103 102 102 103 103 104 103 102 102 101 101 101 101 101 101 100 99 97 96 93 91 89 87 86 84 82 80 77 75 73 73 73 73 73 73 73 73 72 72 71 70 70 69 69 69 69
Wind_Direction
249 249 250 252 252 253 253 253 253 254 256 257 258 259 259 260 260 260 260 260 261 262 263 264 265 266 267 268 270 271 272 272 271 270 270 268 267 267 266 266 266 266 266 267 269 270 272 273 274 276 277 278 278 278 279 279 280 281 282 282 283 283 284 285 285 284 282 280 277 273 269 266 264 261 259 257 257 256 255 256 254 252 250 247 245 241
248 249 250 251 251 251 251 252 253 254 255 255 256 257 258 258 258 258 259 259 260 261 262 263 265 266 266 267 268 270 271 270 269 269 269 267 265 264 264 264 265 265 265 266 268 270 272 275 277 279 280 280 280 281 282 282 283 284 285 285 286 287 288 288 288 287 286 284 280 275 270 267 263 260 258 257 256 255 253 252 251 249 247 244 243 240
248 249 249 249 249 249 250 251 252 253 254 254 255 256 257 257 257 256 257 258 260 261 262 263 265 265 265 265 266 267 269 269 268 268 266 265 264 262 262 263 264 264 265 266 268 270 274 277 279 281 282 283 283 283 284 285 286 287 287 288 289 291 291 292 292 292 291 289 283 277 271 267 263 260 258 257 255 253 249 248 248 247 244 242 241 239
247 247 247 247 248 249 250 251 251 252 253 254 254 255 255 256 255 256 257 259 260 262 262 263 264 264 264 264 264 264 266 267 266 266 264 263 261 260 261 261 263 264 266 267 269 272 275 278 280 282 283 284 284 285 286 287 288 289 290 291 293 294 295 296 296 296 296 292 285 278 272 266 262 259 257 255 253 250 247 245 245 245 243 241 239 237
247 247 247 247 248 249 249 250 251 252 252 253 253 254 254 255 256 256 258 259 260 261 262 263 264 264 263 263 262 262 264 265 265 264 263 261 259 258 259 259 261 264 266 268 270 273 276 278 280 282 283 284 285 286 287 288 289 291 292 294 296 297 299 300 300 302 301 294 287 280 274 266 261 258 256 254 251 247 244 241 240 240 240 238 236 235
247 248 248 248 248 249 250 250 251 252 252 253 253 254 255 255 256 257 257 258 259 261 262 263 263 263 261 261 261 260 261 262 262 262 260 259 258 258 259 259 260 263 267 269 271 273 276 278 280 282 284 284 285 286 287 289 291 293 295 297 299 300 302 303 305 307 304 296 289 283 275 269 263 259 255 251 246 242 238 235 234 234 235 234 232 232
248 248 248 248 249 249 250 250 251 252 252 253 253 254 254 255 255 256 257 258 259 260 261 262 263 261 258 259 259 258 259 260 260 259 258 258 258 257 258 259 261 263 267 269 271 272 275 278 280 282 284 285 285 286 288 290 293 295 298 300 301 303 306 307 310 312 308 301 294 286 278 270 263 256 251 245 240 235 231 229 228 228 229 229 228 227
247 248 248 248 248 249 249 250 250 251 252 252 253 253 254 254 255 256 257 258 259 259 259 260 262 260 256 256 255 255 257 258 258 257 256 257 258 257 258 259 261 263 266 268 270 272 275 278 280 282 284 286 287 288 290 293 296 298 301 303 304 307 309 311 315 317 312 308 301 291 280 270 261 253 247 242 236 230 226 224 223 221 223 224 222 222
246 247 248 248 248 249 250 250 250 251 252 252 252 253 254 254 255 256 257 257 258 258 257 258 260 261 258 252 250 253 256 257 256 256 257 257 257 256 257 259 260 262 265 269 271 274 277 278 280 282 285 287 289 290 293 295 298 300 303 305 307 311 313 315 320 322 319 316 308 295 281 268 260 252 246 242 236 228 222 219 216 215 217 218 217 216
246 246 247 248 249 249 250 250 250 251 252 252 252 252 253 253 254 255 255 256 256 256 256 256 259 261 259 251 247 249 253 256 256 257 258 258 257 257 257 258 260 263 266 269 271 274 276 278 280 283 287 289 291 293 295 298 300 303 306 308 310 314 316 318 325 327 326 322 312 296 282 272 264 255 246 240 233 226 217 211 209 208 210 212 212 212
247 247 247 248 249 249 248 249 250 250 251 251 251 251 252 252 253 253 253 253 254 255 256 256 258 260 259 252 246 243 245 251 255 257 258 259 258 257 257 258 260 262 265 268 270 273 275 278 281 285 288 291 292 295 297 300 302 305 308 310 313 318 319 321 328 331 330 326 316 306 303 299 284 260 243 234 226 216 206 201 199 200 204 208 210 212
246 246 246 247 247 247 247 248 248 249 250 250 251 251 251 251 251 251 252 252 254 255 255 255 255 257 258 253 245 242 243 247 252 255 258 259 259 259 259 259 260 261 264 267 270 272 275 279 282 285 289 292 294 297 299 301 304 307 310 313 316 320 322 323 330 334 333 330 328 331 339 335 305 255 225 216 205 196 191 188 188 193 201 207 210 214
245 245 245 245 245 246 247 247 248 249 250 250 250 250 249 249 249 249 250 252 254 255 253 253 253 255 257 254 245 243 244 247 251 253 255 258 259 260 261 260 261 262 264 267 270 273 276 279 282 285 289 292 295 298 301 303 305 308 312 315 318 323 323 324 331 336 336 337 341 343 346 337 298 214 194 187 181 183 184 179 180 190 201 206 210 214
246 246 246 246 246 247 248 248 248 249 249 248 248 247 247 247 248 249 251 253 254 254 253 253 254 255 257 254 247 244 241 243 249 252 254 257 259 259 260 261 263 263 265 267 270 273 275 278 282 285 289 292 295 299 302 304 306 308 312 315 319 324 325 324 330 336 339 345 345 339 335 314 225 177 176 175 172 177 180 177 181 191 199 205 212 216
247 247 247 247 247 247 247 247 247 247 247 247 247 247 248 249 251 252 253 254 254 253 253 253 255 256 254 249 245 243 241 239 243 250 253 255 257 258 259 261 262 263 266 268 270 272 275 278 282 285 289 292 296 300 303 305 307 309 312 315 319 324 325 323 328 335 342 347 340 323 304 247 194 169 173 177 174 175 176 179 185 193 200 206 213 220
247 247 247 247 246 246 246 246 246 246 246 247 247 248 249 250 252 252 252 252 252 252 252 252 254 254 250 245 243 243 243 241 242 249 254 254 255 256 257 259 261 263 265 267 269 271 275 278 281 285 289 293 297 301 303 306 308 309 311 315 319 323 324 321 324 332 340 343 326 292 247 218 197 178 178 183 181 179 180 184 190 196 202 208 213 217
246 246 246 246 246 246 246 246 246 246 247 247 248 249 250 250 250 250 250 250 250 251 251 252 254 252 248 246 244 243 244 243 243 248 253 255 255 256 256 257 259 262 264 267 269 271 274 277 280 284 289 293 297 300 303 306 308 309 311 314 317 320 321 319 320 326 332 332 307 256 220 213 205 191 190 191 188 187 189 193 200 203 205 209 212 216
245 245 244 245 246 246 246 246 246 247 247 248 249 249 250 249 249 250 251 251 251 252 253 253 252 250 248 246 243 243 244 244 244 246 250 254 255 256 256 257 260 262 264 266 269 270 273 276 280 284 288 293 297 299 303 307 308 308 309 313 315 316 317 315 313 316 320 315 291 255 223 214 209 198 197 199 198 199 201 202 203 205 207 211 215 221
244 244 243 243 245 245 246 246 246 247 248 249 250 250 249 250 250 251 252 252 252 253 252 250 248 247 247 246 242 242 244 244 244 245 249 252 255 256 257 258 260 262 264 266 268 269 272 276 280 284 288 292 296 299 303 306 306 307 308 311 313 313 312 310 305 305 308 301 281 258 229 214 209 202 200 205 206 205 205 203 204 208 213 218 223 227
245 244 243 243 243 244 245 246 247 248 249 250 249 249 249 250 250 250 251 251 250 251 250 248 247 246 245 243 240 242 244 245 245 246 248 251 254 256 257 258 259 261 263 265 267 269 273 276 280 283 287 291 295 299 302 304 304 306 307 309 311 310 308 305 298 293 295 290 273 253 233 219 213 208 204 204 206 206 205 205 209 216 223 227 229 231
245 245 244 243 243 243 244 246 247 248 248 248 248 247 247 248 248 247 248 248 248 248 248 247 246 244 241 240 240 241 243 244 246 247 249 252 254 255 256 257 259 260 263 265 267 270 273 275 279 283 286 290 294 298 300 302 303 304 306 307 308 307 304 301 295 286 282 280 266 248 236 226 220 216 211 207 205 206 209 211 215 222 227 230 231 233
245 245 245 244 243 244 244 245 245 245 246 246 246 246 246 246 247 247 247 247 249 249 250 250 248 243 240 240 240 241 243 245 247 249 251 254 255 255 255 257 258 260 262 264 266 269 272 275 279 282 285 288 292 296 298 300 301 302 304 304 305 305 302 296 292 284 275 272 263 246 238 236 230 224 221 217 213 211 212 216 220 223 228 231 233 235
244 244 244 244 243 243 243 243 243 244 244 245 245 246 246 247 248 249 250 250 250 250 250 250 248 240 237 240 241 242 244 246 249 251 252 253 254 254 255 256 258 259 261 264 267 269 272 275 278 280 284 287 290 293 296 297 298 300 301 301 302 302 299 292 288 283 273 267 260 244 235 237 239 235 229 224 222 221 221 224 227 229 232 235 236 237
244 244 244 244 244 243 242 242 242 243 243 244 245 246 247 248 249 251 250 249 248 248 249 250 246 237 234 239 241 242 244 245 247 250 253 254 255 254 254 255 256 259 262 265 268 269 271 274 277 280 283 286 289 292 294 295 296 297 298 298 299 299 296 290 285 280 271 263 258 243 232 233 237 238 238 233 226 224 225 227 229 231 233 235 236 237
244 244 244 244 243 243 242 242 242 243 244 245 246 247 247 248 249 249 250 249 248 247 248 249 245 238 235 238 240 242 244 245 247 249 252 255 256 254 254 254 256 259 263 266 267 269 271 273 276 279 282 285 288 291 292 294 294 295 295 295 295 295 292 287 282 278 270 261 257 246 233 231 234 236 236 237 234 229 227 226 227 229 231 233 235 238
244 244 244 243 243 243 243 243 243 243 244 244 244 245 246 246 247 247 248 248 247 245 245 246 244 240 238 239 240 241 242 244 246 247 249 252 254 254 254 255 257 260 262 264 266 268 270 273 275 279 281 284 288 289 290 291 292 292 292 291 292 291 287 282 278 275 269 259 255 251 236 230 231 234 233 233 234 234 233 231 230 230 232 234 236 238
243 243 243 243 243 243 243 244 244 244 244 244 244 244 244 244 245 246 245 245 245 244 244 244 243 240 239 239 241 240 240 242 244 246 249 251 253 255 256 258 259 261 262 263 265 267 270 272 275 278 281 284 286 287 288 290 290 289 288 288 288 287 283 278 275 271 267 259 251 250 244 232 229 231 233 232 232 233 234 234 235 235 236 237 238 239
243 244 244 244 244 244 244 244 245 244 245 245 245 244 245 245 246 246 247 247 247 246 245 244 245 244 241 242 243 241 239 240 242 245 249 253 255 257 259 260 260 260 260 262 264 266 269 272 275 278 281 283 284 285 287 288 288 286 286 285 284 282 279 275 271 268 264 259 252 248 246 240 231 230 232 234 234 233 234 235 236 237 239 241 242 244
243 244 244 245 245 245 244 244 244 244 244 245 245 245 245 245 246 247 248 248 248 249 247 245 246 246 242 243 245 244 242 243 243 246 251 255 258 259 260 260 259 258 259 261 263 266 269 272 275 277 279 281 282 283 286 286 285 283 282 281 280 279 276 272 268 266 262 258 254 249 246 244 239 233 232 233 234 235 236 237 237 238 239 240 242 244
243 244 244 245 245 245 244 244 244 244 244 244 245 245 245 245 245 246 246 246 247 249 248 246 245 246 243 243 245 246 244 244 244 246 250 255 257 257 257 259 259 260 260 261 263 266 268 271 274 276 277 279 279 281 283 283 281 280 279 277 276 276 274 270 266 264 262 258 254 251 248 246 243 239 236 234 234 235 236 237 238 238 239 239 240 242
243 244 244 244 245 245 244 244 245 245 244 244 244 245 245 245 245 245 246 246 247 249 250 248 245 245 245 245 246 246 246 246 245 246 249 252 254 254 256 258 260 261 262 263 264 266 268 270 272 274 275 276 277 278 279 279 278 278 276 273 272 272 270 268 266 263 262 260 256 253 251 248 246 244 241 238 236 235 235 235 236 238 239 239 240 241
243 244 244 245 245 245 244 244 245 246 246 245 244 244 244 245 245 246 247 248 248 249 249 247 245 244 245 247 248 246 246 246 246 247 248 250 253 254 256 259 261 262 262 263 264 266 267 268 269 271 273 274 275 276 276 276 277 277 273 269 269 269 268 266 265 263 261 260 259 257 254 251 248 246 245 244 241 239 237 236 237 237 239 240 242 242
243 243 244 244 245 246 245 245 246 247 246 245 244 244 245 246 247 248 248 248 248 248 248 247 246 245 246 247 248 247 247 247 248 248 249 251 253 255 256 258 260 262 262 262 263 264 264 265 267 269 271 272 273 274 276 275 275 274 270 268 268 267 266 265 264 264 262 261 260 259 257 255 253 249 247 246 246 244 243 241 240 239 240 241 242 243
243 243 243 244 245 245 245 245 246 247 246 246 245 246 247 248 248 248 247 246 246 247 247 247 246 246 246 247 248 248 249 248 249 250 251 252 254 255 256 257 259 261 262 262 261 261 262 263 266 268 269 271 272 273 275 275 274 270 266 266 268 265 262 261 260 261 262 261 261 260 259 258 257 254 251 249 247 247 246 246 244 243 242 242 242 243
242 243 244 244 245 245 244 244 245 246 247 247 247 247 248 248 247 247 246 246 245 246 247 247 247 247 247 248 248 248 249 249 250 250 251 253 255 256 257 258 259 260 260 260 260 260 261 262 264 266 268 270 270 272 273 273 271 268 263 262 264 262 259 256 255 257 260 260 260 261 260 259 258 258 257 254 252 250 248 248 247 247 246 245 245 245
240 242 244 245 246 246 244 243 244 246 248 248 248 247 247 247 247 247 247 247 248 248 248 247 246 245 246 246 247 247 247 248 249 249 251 253 255 256 257 258 258 257 257 258 259 260 260 261 262 264 267 268 269 270 270 270 269 266 261 259 259 259 258 254 253 256 259 260 260 261 260 260 260 259 259 258 256 254 252 250 249 249 248 248 248 248
238 240 242 244 245 246 245 244 244 246 247 246 245 245 246 248 249 250 250 249 248 248 248 246 245 244 244 245 246 246 247 247 248 249 251 254 255 255 255 254 255 255 256 257 259 260 260 261 262 264 265 266 267 267 267 267 267 265 261 257 257 259 259 256 254 255 259 259 259 260 260 260 260 259 259 258 258 256 255 253 252 251 251 250 250 250
237 238 240 241 243 245 246 245 244 245 245 245 244 244 246 248 249 250 250 247 245 246 247 247 246 245 245 245 246 246 247 247 247 248 250 252 254 254 253 252 253 255 256 257 258 260 260 260 261 262 262 263 264 264 264 264 264 264 262 258 256 257 259 258 255 254 256 257 257 257 258 258 258 258 258 258 258 257 256 256 255 255 254 254 254 254
236 237 237 239 240 242 244 245 244 244 244 245 244 244 245 246 247 249 249 247 244 245 247 248 247 246 246 246 245 246 246 246 246 246 247 249 251 252 252 252 253 255 256 257 257 258 259 259 260 260 261 261 262 262 262 262 263 265 265 261 257 256 258 260 257 254 254 255 254 255 255 256 256 257 257 257 257 257 257 257 256 256 257 257 257 256
236 237 237 237 238 240 241 243 244 245 245 244 243 243 243 245 246 247 249 248 245 245 247 249 248 248 247 247 246 246 247 247 246 245 245 246 248 252 253 254 254 254 255 256 257 257 258 259 260 260 260 261 261 262 262 262 264 265 266 264 260 257 257 259 259 257 256 255 254 253 253 254 254 255 255 255 255 256 256 256 256 256 256 257 257 257
236 237 237 237 238 238 240 242 244 245 245 245 243 241 242 243 244 245 247 248 247 246 247 249 249 249 248 248 248 248 248 248 245 244 244 245 247 251 254 255 254 254 255 255 256 257 257 258 259 259 260 260 261 262 262 263 263 264 265 266 264 260 257 258 259 260 259 257 255 253 252 252 252 253 253 253 253 254 255 255 255 255 254 255 255 256
235 235 236 237 238 238 239 240 242 243 244 244 243 241 240 241 243 244 246 248 248 247 247 248 249 249 249 249 249 249 249 248 246 245 245 246 247 249 252 254 254 254 254 255 255 256 256 257 257 258 259 259 260 260 261 262 263 263 264 266 265 263 259 257 259 261 261 259 257 255 252 251 251 251 251 251 251 252 253 254 253 253 253 254 254 254
234 234 235 236 237 238 238 239 240 242 242 243 243 241 239 240 243 245 246 248 248 247 247 247 248 248 249 249 249 248 248 247 246 245 246 246 247 248 250 252 254 254 253 253 254 255 255 256 256 257 257 258 259 259 260 260 261 262 264 265 266 264 261 259 259 261 262 261 259 257 254 251 250 250 250 250 250 252 252 252 252 253 253 253 253 253
234 234 234 234 235 236 237 238 239 241 241 242 242 241 240 240 242 244 245 246 246 246 245 245 246 246 247 248 247 247 246 246 245 245 245 246 246 247 248 250 251 252 252 252 252 253 254 255 255 256 256 257 258 258 259 260 261 262 263 264 265 265 263 261 260 262 263 262 260 258 255 252 251 251 251 251 251 251 251 252 252 253 253 253 253 253
234 234 235 235 235 235 237 238 239 240 241 241 241 240 239 238 239 241 242 243 243 243 243 243 243 244 245 245 245 245 245 244 244 244 244 245 246 246 247 248 249 249 250 250 251 251 252 254 254 255 256 256 257 257 258 259 260 261 262 263 264 265 264 263 262 263 263 262 260 258 256 253 252 251 252 251 251 251 250 251 252 253 253 253 253 254
234 235 235 236 235 235 236 237 238 240 241 242 242 241 240 239 238 239 240 240 241 241 241 241 242 242 243 244 245 245 244 244 243 243 243 244 245 245 246 246 247 248 249 249 249 250 250 252 253 254 255 255 256 256 257 258 259 260 261 262 263 264 264 264 264 263 262 261 260 258 256 253 251 251 251 251 251 251 251 251 251 252 253 254 254 254
234 235 236 236 236 236 237 238 238 239 240 240 241 240 240 240 239 239 239 240 241 241 242 242 242 242 242 243 244 244 244 243 243 242 242 243 244 244 245 246 246 247 248 249 249 249 249 250 251 252 253 254 255 256 256 257 258 259 260 261 262 262 263 263 263 262 261 260 259 257 255 252 249 249 249 250 251 252 252 252 251 252 253 254 254 255
234 235 235 236 237 236 237 238 238 238 239 239 239 239 239 239 239 239 239 240 241 242 242 242 242 242 243 243 243 243 243 243 243 243 242 243 243 244 244 245 245 247 248 248 248 249 249 250 250 251 252 253 254 255 256 256 257 258 259 259 260 261 262 262 262 261 260 259 257 255 254 252 250 249 249 250 251 252 252 253 252 252 252 253 254 255
234 235 235 237 237 236 237 238 239 238 238 238 239 239 239 239 239 238 239 240 241 242 242 243 243 244 244 244 244 244 244 243 243 243 243 243 243 244 244 244 244 245 247 248 248 249 249 249 250 251 252 253 254 255 255 256 257 257 258 258 259 259 260 260 260 260 259 257 256 254 254 253 252 251 250 250 251 251 251 252 252 252 252 253 254 255
235 236 236 237 237 236 236 238 239 239 239 238 238 239 239 238 238 238 238 239 240 241 242 242 243 244 245 246 246 246 246 245 244 244 243 243 243 243 244 244 244 245 246 247 248 249 249 249 250 251 252 253 253 254 255 255 256 256 257 257 258 258 259 259 259 259 258 257 255 255 254 254 253 252 251 250 250 250 251 251 252 253 253 254 254 255
236 235 235 236 236 235 236 238 239 239 239 238 238 239 239 239 238 237 237 238 239 241 241 241 242 243 244 245 246 247 247 247 246 245 244 244 244 244 244 244 245 245 245 247 248 249 250 250 250 251 252 252 253 253 254 254 255 256 256 256 257 257 258 258 258 258 257 257 256 255 254 254 254 253 253 252 251 250 250 251 252 252 253 254 255 256
Height
10586 10591 10600 10608 10612 10609 10604 10600 10600 10606 10611 10613 10615 10621 10628 10632 10634 10632 10628 10628 10628 10633 10642 10646 10652 10660 10661 10658 10647 10639 10651 10664 10662 10661 10665 10663 10659 10656 10655 10656 10657 10658 10658 10660 10661 10661 10662 10662 10662 10661 10660 10659 10658 10657 10656 10655 10654 10652 10651 10649 10647 10644 10642 10639 10636 10632 10627 10624 10621 10617 10615 10614 10615 10613 10609 10605 10606 10611 10614 10612 10617 10625 10633 10640 10644 10650
10576 10585 10597 10600 10598 10593 10588 10589 10593 10599 10603 10605 10607 10612 10619 10623 10624 10620 10616 10618 10618 10624 10635 10637 10643 10655 10655 10652 10644 10632 10641 10654 10653 10654 10657 10655 10653 10651 10650 10650 10651 10651 10652 10654 10655 10656 10656 10655 10655 10654 10653 10652 10651 10650 10649 10648 10646 10644 10642 10640 10637 10635 10631 10628 10623 10618 10613 10608 10603 10601 10602 10603 10602 10598 10593 10591 10592 10598 10602 10599 10601 10611 10619 10626 10633 10639
10568 10581 10589 10585 10581 10579 10577 10581 10585 10589 10593 10597 10600 10604 10609 10613 10612 10608 10605 10607 10610 10616 10628 10630 10635 10648 10648 10645 10641 10628 10631 10644 10644 10647 10650 10647 10647 10645 10644 10645 10644 10645 10646 10648 10649 10650 10650 10649 10649 10648 10647 10646 10644 10643 10642 10640 10638 10636 10634 10631 10627 10624 10620 10616 10610 10604 10599 10593 10586 10585 10589 10590 10586 10582 10576 10575 10578 10583 10588 10586 10587 10597 10606 10614 10623 10628
10561 10571 10574 10570 10567 10568 10570 10573 10575 10579 10584 10588 10592 10595 10600 10601 10598 10597 10597 10599 10604 10609 10618 10622 10627 10640 10641 10638 10637 10625 10625 10634 10635 10639 10642 10641 10640 10638 10639 10640 10638 10639 10640 10642 10643 10644 10644 10643 10642 10641 10640 10639 10637 10637 10635 10633 10631 10628 10625 10622 10618 10614 10609 10604 10597 10590 10585 10578 10571 10570 10574 10574 10568 10563 10559 10560 10564 10568 10573 10574 10577 10585 10594 10604 10612 10618
10553 10558 10559 10559 10557 10558 10561 10564 10567 10571 10575 10578 10581 10585 10589 10589 10586 10588 10590 10592 10596 10600 10608 10613 10619 10633 10635 10630 10631 10622 10620 10625 10626 10630 10633 10632 10633 10632 10634 10634 10633 10634 10634 10635 10638 10638 10638 10637 10636 10635 10633 10632 10630 10629 10628 10626 10624 10621 10617 10613 10609 10604 10599 10592 10584 10578 10573 10564 10559 10555 10554 10553 10549 10544 10543 10546 10550 10554 10559 10562 10567 10575 10583 10593 10602 10609
10543 10546 10547 10549 10548 10548 10552 10555 10558 10560 10564 10568 10572 10576 10578 10578 10577 10579 10582 10583 10586 10592 10600 10604 10609 10625 10629 10624 10624 10618 10614 10618 10618 10621 10624 10623 10625 10627 10628 10627 10628 10629 10628 10629 10631 10631 10632 10631 10630 10629 10627 10626 10624 10622 10621 10619 10617 10613 10609 10605 10600 10594 10588 10581 10573 10567 10561 10553 10547 10540 10534 10532 10529 10527 10528 10531 10533 10537 10543 10547 10554 10564 10573 10583 10592 10601
10534 10536 10536 10539 10538 10538 10541 10546 10549 10549 10552 10558 10563 10566 10565 10567 10568 10569 10572 10574 10578 10586 10592 10594 10598 10615 10624 10620 10618 10611 10608 10612 10611 10613 10615 10614 10619 10622 10621 10621 10622 10623 10622 10623 10624 10625 10626 10625 10624 10623 10621 10620 10618 10616 10614 10612 10610 10606 10602 10597 10591 10586 10579 10570 10562 10557 10550 10542 10533 10525 10519 10515 10512 10511 10513 10516 10518 10522 10528 10533 10544 10556 10565 10576 10587 10597
10527 10525 10523 10527 10527 10527 10531 10538 10539 10536 10539 10547 10553 10554 10553 10556 10558 10560 10563 10565 10572 10579 10583 10587 10589 10599 10617 10620 10611 10604 10603 10605 10603 10604 10605 10607 10613 10616 10614 10615 10616 10617 10617 10617 10618 10619 10619 10619 10618 10616 10615 10614 10611 10609 10607 10606 10603 10599 10595 10589 10583 10578 10570 10561 10554 10547 10540 10530 10521 10514 10508 10503 10500 10501 10502 10505 10508 10512 10518 10525 10537 10549 10559 10571 10583 10593
10515 10513 10512 10514 10517 10520 10526 10530 10528 10525 10528 10538 10543 10544 10545 10547 10549 10552 10555 10558 10563 10568 10575 10583 10580 10584 10608 10617 10605 10598 10598 10597 10596 10594 10597 10602 10606 10608 10608 10609 10611 10611 10611 10611 10611 10613 10613 10612 10612 10610 10609 10608 10605 10603 10601 10599 10597 10593 10588 10582 10577 10571 10562 10554 10547 10539 10530 10521 10512 10505 10499 10495 10493 10493 10495 10498 10502 10507 10513 10521 10532 10544 10556 10569 10581 10591
10501 10505 10505 10505 10510 10516 10518 10518 10517 10515 10519 10528 10532 10534 10536 10537 10541 10543 10546 10550 10551 10557 10569 10578 10573 10573 10595 10610 10602 10596 10595 10589 10587 10587 10590 10595 10598 10601 10602 10603 10605 10606 10605 10605 10605 10606 10606 10606 10605 10604 10603 10601 10599 10597 10595 10593 10590 10587 10583 10576 10571 10565 10556 10549 10543 10533 10523 10514 10506 10499 10494 10490 10488 10488 10490 10494 10499 10504 10511 10520 10532 10544 10557 10569 10580 10591
10491 10495 10496 10498 10502 10506 10508 10507 10506 10506 10510 10518 10522 10526 10527 10528 10531 10531 10535 10539 10537 10549 10565 10570 10568 10565 10579 10600 10599 10594 10592 10584 10579 10581 10584 10587 10589 10592 10595 10597 10599 10600 10599 10599 10600 10600 10600 10600 10599 10598 10597 10595 10594 10592 10589 10587 10585 10582 10578 10571 10566 10561 10552 10546 10540 10531 10520 10511 10503 10497 10492 10488 10486 10487 10489 10493 10498 10505 10514 10523 10534 10546 10559 10571 10582 10592
10480 10483 10487 10490 10491 10493 10496 10496 10497 10497 10501 10508 10511 10516 10517 10517 10519 10519 10523 10528 10529 10546 10560 10560 10559 10556 10567 10592 10593 10587 10589 10581 10573 10576 10578 10578 10580 10584 10588 10591 10593 10593 10593 10593 10593 10594 10594 10594 10593 10592 10591 10590 10588 10586 10583 10582 10579 10577 10573 10567 10563 10557 10548 10543 10539 10531 10521 10511 10503 10497 10493 10490 10489 10490 10492 10497 10503 10511 10519 10526 10537 10550 10562 10573 10583 10593
10466 10471 10475 10477 10479 10482 10484 10485 10487 10490 10494 10498 10501 10505 10505 10504 10505 10507 10514 10519 10525 10539 10548 10547 10548 10549 10564 10584 10584 10581 10584 10577 10569 10571 10572 10570 10572 10576 10580 10584 10586 10586 10586 10586 10586 10588 10588 10588 10587 10586 10586 10584 10583 10581 10578 10576 10574 10572 10569 10564 10560 10555 10546 10541 10538 10531 10523 10514 10506 10501 10498 10497 10496 10497 10500 10505 10510 10517 10523 10530 10542 10556 10567 10576 10584 10591
10455 10460 10464 10468 10473 10475 10475 10476 10479 10483 10484 10484 10486 10488 10489 10489 10492 10499 10509 10513 10518 10528 10534 10537 10538 10546 10565 10576 10573 10573 10576 10573 10566 10564 10564 10564 10565 10570 10574 10577 10579 10579 10579 10580 10580 10581 10582 10583 10582 10581 10581 10579 10577 10576 10572 10570 10569 10568 10566 10562 10557 10553 10545 10539 10537 10533 10525 10517 10511 10508 10506 10505 10506 10507 10510 10514 10518 10523 10529 10536 10547 10559 10568 10575 10582 10588
10445 10450 10457 10461 10464 10465 10464 10465 10468 10468 10467 10467 10471 10472 10476 10483 10488 10497 10504 10504 10510 10517 10522 10527 10531 10545 10562 10566 10563 10563 10565 10567 10564 10558 10558 10559 10559 10563 10568 10570 10571 10571 10573 10574 10574 10575 10576 10577 10577 10576 10575 10574 10572 10570 10567 10565 10564 10563 10562 10559 10555 10551 10545 10538 10536 10535 10528 10522 10519 10517 10516 10516 10516 10517 10520 10522 10525 10531 10538 10544 10552 10559 10567 10573 10578 10584
10433 10440 10449 10447 10448 10452 10451 10452 10453 10452 10452 10456 10460 10463 10472 10483 10484 10485 10490 10494 10500 10504 10510 10518 10526 10541 10552 10553 10554 10555 10556 10560 10559 10553 10550 10551 10553 10557 10562 10563 10563 10565 10567 10566 10567 10569 10570 10571 10571 10571 10570 10569 10567 10565 10562 10560 10558 10557 10557 10556 10552 10550 10545 10539 10535 10534 10531 10527 10526 10525 10524 10525 10525 10526 10530 10531 10534 10539 10544 10550 10556 10562 10567 10573 10578 10583
10419 10428 10436 10432 10434 10439 10438 10439 10440 10440 10441 10444 10450 10458 10470 10475 10470 10468 10475 10483 10487 10490 10501 10512 10521 10534 10541 10545 10550 10550 10549 10552 10551 10546 10541 10542 10547 10551 10554 10556 10557 10559 10560 10559 10560 10562 10564 10566 10566 10566 10565 10564 10562 10559 10558 10555 10553 10552 10552 10552 10550 10547 10545 10540 10535 10534 10532 10531 10531 10531 10532 10533 10533 10534 10537 10540 10543 10547 10551 10555 10560 10564 10569 10574 10579 10582
10405 10411 10420 10420 10422 10426 10427 10427 10428 10428 10430 10436 10445 10457 10460 10456 10456 10459 10463 10472 10478 10483 10496 10508 10516 10525 10531 10539 10545 10542 10540 10542 10541 10538 10535 10535 10540 10543 10546 10549 10549 10551 10552 10552 10554 10556 10559 10560 10560 10561 10560 10559 10557 10554 10552 10550 10548 10547 10547 10548 10547 10545 10544 10541 10536 10533 10533 10532 10533 10535 10536 10538 10539 10540 10543 10546 10549 10552 10556 10560 10564 10568 10572 10576 10580 10583
10391 10395 10404 10409 10410 10414 10413 10412 10415 10420 10425 10432 10441 10446 10444 10443 10450 10454 10453 10463 10472 10475 10486 10499 10507 10515 10524 10533 10537 10531 10530 10531 10532 10532 10531 10531 10533 10535 10538 10541 10542 10544 10544 10545 10548 10550 10553 10554 10554 10555 10555 10554 10552 10549 10547 10545 10544 10543 10542 10543 10543 10542 10541 10540 10537 10534 10533 10533 10533 10536 10538 10540 10542 10543 10546 10550 10553 10556 10560 10564 10567 10571 10574 10577 10579 10582
10377 10377 10386 10395 10397 10398 10398 10399 10409 10419 10423 10425 10428 10432 10433 10435 10441 10444 10444 10453 10461 10463 10474 10488 10496 10507 10519 10525 10525 10522 10522 10523 10524 10526 10525 10525 10526 10527 10530 10532 10534 10536 10537 10538 10541 10544 10547 10548 10548 10549 10549 10549 10547 10544 10542 10540 10540 10539 10537 10537 10539 10538 10538 10538 10537 10535 10533 10533 10533 10534 10537 10540 10542 10544 10546 10549 10553 10557 10560 10563 10567 10570 10572 10574 10577 10579
10358 10360 10371 10381 10382 10384 10389 10397 10408 10413 10410 10409 10413 10417 10422 10424 10427 10430 10433 10440 10447 10453 10464 10476 10487 10503 10514 10514 10514 10515 10514 10514 10516 10518 10518 10518 10518 10519 10522 10524 10526 10528 10530 10532 10535 10538 10540 10541 10542 10543 10544 10544 10543 10540 10538 10535 10535 10535 10533 10532 10533 10534 10534 10534 10534 10534 10533 10532 10532 10532 10535 10538 10542 10544 10546 10548 10551 10553 10556 10559 10562 10565 10567 10570 10573 10576
10346 10349 10356 10362 10367 10375 10383 10390 10393 10391 10392 10395 10398 10402 10409 10412 10412 10415 10423 10431 10438 10446 10457 10467 10480 10498 10507 10505 10506 10507 10506 10507 10509 10510 10511 10510 10508 10510 10514 10517 10519 10522 10524 10526 10529 10532 10533 10535 10536 10536 10537 10538 10538 10536 10534 10532 10530 10530 10529 10528 10528 10528 10529 10529 10530 10530 10530 10530 10530 10530 10532 10535 10538 10542 10545 10548 10550 10551 10553 10556 10558 10561 10564 10566 10568 10571
10330 10329 10332 10339 10351 10362 10367 10370 10371 10373 10379 10381 10383 10391 10399 10402 10405 10410 10419 10428 10432 10438 10450 10458 10468 10489 10501 10499 10499 10499 10499 10501 10502 10502 10503 10500 10498 10501 10506 10509 10512 10514 10517 10520 10523 10525 10526 10528 10529 10529 10530 10532 10532 10532 10530 10528 10526 10525 10525 10524 10524 10524 10523 10524 10525 10525 10526 10527 10527 10527 10529 10531 10534 10537 10541 10544 10547 10549 10551 10553 10555 10557 10560 10561 10563 10566
10310 10311 10319 10328 10337 10345 10349 10353 10356 10359 10363 10367 10377 10390 10393 10396 10403 10405 10407 10414 10419 10427 10441 10446 10456 10482 10497 10492 10488 10489 10491 10493 10495 10495 10494 10490 10489 10492 10497 10502 10505 10507 10510 10513 10515 10517 10519 10520 10521 10521 10523 10524 10526 10527 10526 10524 10522 10521 10520 10519 10520 10520 10519 10519 10519 10520 10521 10522 10523 10524 10524 10527 10529 10532 10535 10538 10541 10545 10547 10550 10551 10552 10554 10556 10558 10560
10294 10297 10306 10310 10315 10322 10328 10335 10342 10349 10356 10366 10377 10382 10382 10388 10393 10389 10393 10400 10405 10421 10433 10432 10445 10475 10488 10482 10479 10481 10484 10486 10487 10487 10486 10480 10476 10481 10488 10494 10498 10501 10505 10506 10508 10510 10511 10512 10513 10515 10516 10517 10519 10520 10520 10519 10517 10516 10515 10515 10515 10516 10516 10515 10514 10515 10517 10517 10518 10519 10520 10522 10525 10527 10530 10533 10536 10540 10542 10544 10546 10548 10549 10551 10553 10555
10274 10277 10284 10286 10292 10301 10312 10325 10338 10346 10349 10353 10360 10364 10368 10375 10374 10374 10381 10380 10387 10412 10421 10417 10438 10465 10472 10470 10471 10474 10477 10479 10477 10478 10477 10468 10463 10470 10481 10487 10492 10496 10498 10499 10499 10501 10503 10504 10506 10508 10510 10511 10512 10513 10514 10514 10512 10511 10510 10510 10510 10511 10512 10512 10511 10510 10511 10513 10514 10515 10515 10517 10519 10522 10525 10528 10530 10533 10536 10538 10541 10543 10545 10547 10548 10550
10253 10256 10262 10267 10275 10289 10305 10321 10331 10334 10332 10334 10344 10352 10355 10357 10357 10359 10361 10361 10380 10404 10405 10410 10434 10451 10457 10463 10465 10467 10470 10469 10468 10468 10465 10456 10455 10465 10475 10481 10485 10488 10489 10490 10491 10494 10496 10498 10500 10502 10503 10504 10505 10505 10506 10507 10506 10506 10505 10505 10504 10505 10506 10507 10507 10507 10507 10508 10509 10510 10511 10512 10514 10516 10519 10522 10525 10527 10529 10532 10534 10537 10539 10541 10542 10544
10233 10236 10246 10256 10265 10281 10300 10312 10316 10317 10318 10324 10334 10339 10341 10345 10346 10345 10347 10362 10383 10387 10388 10413 10433 10439 10453 10460 10453 10455 10460 10458 10460 10461 10454 10448 10452 10462 10468 10471 10475 10477 10478 10481 10484 10488 10490 10491 10494 10496 10496 10497 10498 10498 10498 10499 10500 10500 10499 10499 10499 10499 10499 10500 10502 10503 10503 10503 10504 10505 10507 10507 10509 10511 10513 10516 10518 10521 10523 10526 10528 10530 10532 10534 10535 10537
10217 10221 10236 10246 10254 10270 10288 10296 10297 10298 10304 10311 10318 10323 10328 10331 10333 10334 10343 10362 10371 10364 10381 10418 10427 10427 10446 10448 10438 10445 10450 10449 10454 10455 10448 10444 10448 10454 10456 10456 10461 10466 10471 10476 10478 10481 10483 10485 10488 10489 10488 10490 10491 10490 10490 10491 10492 10493 10493 10493 10493 10493 10493 10493 10495 10497 10497 10498 10499 10500 10502 10503 10504 10506 10507 10509 10512 10514 10516 10518 10521 10523 10524 10526 10528 10530
10202 10206 10223 10235 10241 10255 10271 10277 10278 10282 10289 10296 10301 10308 10314 10317 10320 10324 10332 10348 10354 10353 10377 10411 10416 10416 10432 10433 10429 10434 10437 10439 10444 10445 10442 10438 10436 10440 10441 10442 10448 10457 10465 10470 10472 10475 10477 10479 10482 10482 10480 10482 10482 10482 10484 10483 10483 10486 10487 10486 10487 10488 10487 10487 10488 10490 10491 10493 10494 10495 10496 10498 10499 10501 10502 10503 10505 10507 10509 10511 10513 10515 10517 10519 10521 10523
10191 10194 10212 10225 10225 10235 10253 10261 10260 10265 10274 10282 10288 10293 10298 10300 10303 10308 10318 10337 10350 10355 10374 10396 10400 10405 10417 10419 10417 10421 10424 10428 10431 10432 10432 10425 10420 10426 10432 10435 10441 10449 10458 10463 10465 10468 10471 10472 10474 10473 10472 10472 10472 10474 10477 10476 10475 10478 10480 10480 10480 10482 10481 10480 10481 10483 10484 10485 10487 10489 10490 10491 10493 10495 10496 10498 10499 10500 10501 10503 10505 10507 10509 10512 10513 10515
10181 10184 10201 10210 10205 10214 10240 10250 10247 10253 10260 10262 10267 10274 10278 10283 10292 10303 10320 10337 10346 10350 10360 10369 10379 10397 10408 10403 10400 10407 10413 10415 10416 10418 10417 10412 10411 10420 10428 10432 10436 10441 10449 10455 10458 10460 10461 10463 10464 10463 10463 10464 10464 10465 10469 10470 10470 10471 10472 10473 10474 10476 10475 10474 10475 10476 10477 10478 10479 10481 10484 10485 10487 10488 10490 10492 10493 10494 10495 10495 10497 10499 10501 10503 10505 10506
10169 10173 10186 10194 10188 10200 10229 10241 10240 10241 10231 10224 10241 10263 10272 10281 10292 10302 10313 10325 10330 10334 10339 10349 10370 10391 10393 10384 10385 10396 10402 10403 10404 10404 10403 10404 10410 10416 10422 10426 10428 10432 10440 10447 10449 10449 10449 10451 10454 10453 10453 10455 10457 10457 10459 10462 10464 10464 10465 10466 10467 10468 10468 10469 10470 10470 10471 10472 10472 10473 10475 10477 10479 10481 10483 10485 10486 10487 10488 10489 10490 10492 10493 10495 10496 10497
10156 10159 10169 10178 10177 10186 10213 10232 10229 10209 10189 10198 10238 10268 10274 10280 10286 10287 10293 10306 10314 10317 10322 10338 10361 10373 10371 10371 10379 10385 10387 10389 10390 10390 10393 10400 10405 10408 10412 10418 10421 10423 10428 10433 10435 10435 10437 10442 10445 10444 10445 10447 10449 10449 10450 10453 10455 10457 10459 10460 10459 10460 10462 10462 10464 10464 10464 10466 10466 10466 10467 10469 10471 10473 10475 10477 10479 10480 10481 10482 10483 10485 10486 10487 10487 10488
10145 10147 10154 10164 10165 10171 10197 10214 10196 10167 10168 10205 10246 10265 10264 10264 10264 10262 10268 10285 10298 10304 10313 10331 10350 10358 10357 10363 10370 10371 10372 10374 10374 10377 10386 10393 10396 10398 10403 10408 10411 10411 10412 10414 10418 10423 10428 10433 10436 10437 10437 10438 10440 10441 10442 10443 10445 10448 10452 10453 10452 10452 10454 10455 10456 10457 10458 10459 10459 10460 10461 10461 10463 10464 10466 10468 10470 10472 10474 10475 10476 10477 10478 10479 10479 10479
10134 10138 10144 10151 10152 10156 10174 10183 10167 10157 10181 10213 10233 10243 10243 10239 10238 10243 10255 10278 10296 10301 10305 10316 10331 10339 10340 10345 10352 10353 10354 10354 10353 10365 10384 10388 10384 10387 10393 10394 10391 10389 10393 10400 10406 10414 10420 10424 10427 10430 10429 10429 10430 10432 10434 10434 10434 10437 10443 10445 10444 10445 10446 10448 10449 10450 10452 10453 10453 10453 10454 10455 10456 10456 10457 10459 10460 10462 10464 10466 10467 10469 10470 10471 10471 10472
10125 10129 10134 10137 10137 10139 10147 10158 10161 10163 10172 10185 10201 10219 10226 10225 10232 10242 10250 10270 10286 10283 10278 10289 10307 10319 10324 10331 10336 10335 10335 10335 10341 10365 10385 10379 10369 10371 10373 10371 10368 10371 10382 10393 10399 10405 10412 10415 10418 10420 10419 10418 10420 10422 10425 10425 10423 10426 10431 10435 10437 10437 10438 10440 10442 10444 10445 10446 10446 10447 10447 10448 10449 10450 10450 10451 10451 10453 10454 10455 10457 10459 10460 10462 10463 10464
10110 10115 10121 10121 10121 10126 10128 10134 10145 10145 10143 10157 10185 10212 10222 10223 10229 10230 10226 10238 10259 10260 10256 10270 10291 10305 10313 10317 10319 10318 10314 10315 10335 10368 10380 10365 10352 10347 10344 10348 10356 10365 10375 10384 10390 10396 10401 10403 10406 10407 10406 10407 10410 10412 10415 10415 10412 10415 10421 10426 10428 10429 10430 10432 10433 10436 10438 10438 10438 10439 10440 10441 10442 10443 10443 10444 10444 10445 10446 10447 10448 10449 10451 10452 10453 10455
10092 10098 10106 10104 10104 10110 10110 10109 10118 10123 10127 10148 10178 10204 10215 10214 10215 10210 10193 10201 10235 10250 10247 10258 10277 10290 10297 10298 10298 10295 10289 10298 10335 10367 10365 10345 10329 10317 10318 10336 10352 10358 10365 10373 10380 10385 10387 10389 10393 10395 10395 10397 10399 10401 10403 10404 10404 10406 10411 10414 10417 10420 10422 10422 10424 10427 10430 10430 10431 10432 10432 10433 10434 10435 10436 10437 10437 10438 10439 10439 10440 10441 10442 10443 10444 10446
10076 10080 10085 10085 10086 10095 10097 10094 10099 10106 10115 10137 10164 10187 10200 10201 10200 10186 10160 10170 10220 10246 10242 10248 10263 10272 10276 10275 10275 10275 10275 10295 10333 10347 10332 10319 10311 10302 10309 10330 10341 10346 10355 10363 10368 10373 10375 10378 10381 10383 10385 10386 10387 10390 10393 10395 10397 10399 10400 10401 10405 10410 10412 10412 10415 10419 10421 10422 10423 10424 10424 10426 10426 10427 10428 10429 10430 10431 10431 10432 10433 10434 10435 10435 10436 10438
10061 10063 10066 10069 10074 10084 10086 10083 10087 10093 10102 10121 10147 10172 10186 10185 10172 10153 10140 10164 10214 10239 10237 10239 10246 10251 10254 10253 10256 10262 10267 10285 10312 10315 10302 10302 10306 10303 10305 10315 10325 10335 10344 10350 10356 10361 10362 10365 10369 10372 10374 10375 10376 10380 10384 10386 10388 10389 10388 10389 10393 10398 10401 10402 10406 10410 10411 10411 10413 10415 10416 10417 10418 10419 10420 10421 10422 10423 10424 10425 10425 10426 10427 10428 10429 10430
10043 10046 10048 10052 10058 10068 10072 10071 10073 10077 10086 10103 10126 10150 10165 10158 10141 10136 10149 10174 10202 10222 10230 10228 10225 10229 10233 10234 10240 10249 10255 10267 10285 10290 10285 10289 10298 10298 10296 10300 10311 10323 10331 10336 10343 10347 10349 10353 10357 10359 10361 10362 10365 10370 10373 10374 10376 10377 10377 10378 10381 10384 10388 10393 10398 10400 10400 10401 10403 10405 10406 10408 10409 10411 10412 10412 10414 10415 10415 10416 10417 10418 10420 10421 10421 10422
10026 10029 10032 10037 10044 10051 10055 10056 10056 10058 10070 10088 10106 10125 10141 10142 10137 10142 10157 10171 10185 10203 10213 10208 10205 10210 10215 10217 10224 10232 10239 10250 10263 10269 10270 10275 10284 10289 10289 10291 10297 10307 10316 10323 10328 10332 10336 10340 10343 10345 10348 10351 10355 10359 10361 10362 10364 10365 10365 10367 10368 10371 10377 10384 10388 10390 10390 10391 10392 10393 10395 10397 10400 10401 10402 10403 10404 10405 10406 10407 10408 10410 10412 10413 10413 10414
10009 10011 10015 10022 10029 10031 10033 10037 10039 10043 10057 10073 10087 10104 10123 10134 10135 10134 10141 10154 10166 10177 10183 10185 10188 10194 10195 10197 10202 10209 10219 10231 10243 10250 10254 10259 10267 10273 10277 10280 10282 10289 10300 10309 10312 10317 10322 10325 10328 10332 10335 10339 10344 10347 10348 10349 10351 10353 10354 10355 10355 10359 10365 10372 10378 10380 10380 10379 10380 10382 10384 10387 10389 10391 10392 10393 10394 10394 10395 10397 10400 10402 10403 10404 10405 10405
9994 9997 10000 10006 10012 10013 10016 10022 10027 10032 10043 10054 10068 10086 10101 10111 10113 10112 10118 10132 10141 10146 10155 10163 10169 10174 10175 10174 10177 10187 10201 10213 10222 10231 10237 10242 10249 10255 10260 10265 10268 10273 10284 10294 10298 10303 10307 10311 10315 10318 10321 10326 10330 10333 10335 10337 10339 10341 10342 10343 10344 10348 10354 10361 10367 10369 10368 10368 10369 10371 10373 10376 10378 10379 10381 10382 10382 10382 10385 10388 10391 10392 10393 10394 10395 10395
9983 9985 9986 9990 9995 10000 10005 10012 10017 10023 10032 10042 10056 10072 10083 10090 10096 10098 10102 10111 10119 10125 10134 10142 10149 10156 10157 10154 10158 10171 10184 10194 10204 10214 10220 10225 10231 10238 10243 10249 10254 10259 10269 10279 10285 10289 10293 10298 10302 10304 10308 10312 10315 10319 10323 10324 10326 10328 10330 10331 10334 10338 10343 10350 10354 10355 10356 10357 10357 10360 10362 10365 10366 10368 10369 10369 10370 10372 10376 10379 10381 10383 10383 10384 10384 10385
9970 9969 9969 9974 9981 9988 9995 10001 10006 10012 10020 10028 10039 10053 10063 10072 10083 10091 10095 10100 10107 10112 10118 10126 10133 10138 10137 10137 10144 10154 10164 10174 10185 10196 10204 10209 10214 10222 10228 10234 10241 10248 10256 10264 10270 10275 10280 10285 10288 10291 10295 10298 10301 10305 10309 10311 10313 10316 10318 10320 10324 10327 10331 10336 10339 10341 10344 10346 10347 10349 10351 10352 10354 10356 10356 10357 10359 10363 10366 10369 10371 10373 10373 10374 10375 10376
9954 9952 9955 9961 9968 9978 9986 9990 9992 9997 10006 10014 10022 10034 10047 10058 10069 10078 10084 10088 10093 10098 10104 10112 10117 10118 10120 10125 10131 10137 10147 10158 10168 10179 10189 10195 10200 10207 10214 10221 10230 10237 10243 10250 10256 10261 10266 10271 10274 10278 10281 10285 10288 10292 10294 10297 10300 10303 10305 10308 10311 10315 10319 10323 10326 10329 10332 10333 10335 10337 10338 10340 10342 10344 10346 10348 10350 10353 10356 10358 10360 10362 10363 10364 10365 10366
9940 9940 9947 9952 9957 9968 9976 9976 9976 9981 9991 10002 10010 10019 10031 10043 10053 10061 10067 10072 10076 10080 10087 10096 10101 10104 10109 10114 10120 10126 10136 10147 10156 10165 10174 10182 10187 10193 10201 10210 10221 10227 10231 10236 10242 10247 10252 10257 10260 10264 10267 10271 10275 10278 10281 10284 10287 10289 10292 10296 10299 10303 10306 10309 10313 10316 10318 10321 10323 10325 10327 10329 10332 10333 10335 10338 10340 10342 10345 10347 10349 10351 10353 10354 10355 10356
9929 9934 9942 9942 9944 9955 9962 9961 9961 9965 9976 9990 9998 10002 10011 10024 10036 10046 10053 10057 10059 10061 10069 10080 10087 10092 10098 10104 10110 10117 10125 10135 10145 10154 10161 10167 10172 10180 10189 10199 10209 10217 10222 10225 10229 10233 10238 10242 10246 10250 10254 10257 10261 10264 10266 10269 10272 10275 10279 10283 10287 10291 10294 10297 10301 10303 10306 10309 10312 10315 10317 10319 10320 10322 10324 10326 10328 10331 10333 10336 10338 10340 10342 10344 10345 10346
9920 9927 9931 9926 9930 9944 9950 9948 9947 9951 9964 9978 9984 9986 9995 10006 10018 10030 10039 10042 10044 10047 10055 10064 10072 10078 10084 10091 10096 10102 10110 10119 10129 10140 10149 10155 10160 10169 10181 10189 10197 10206 10212 10214 10217 10219 10223 10229 10234 10238 10241 10244 10246 10248 10251 10254 10258 10262 10266 10271 10275 10279 10282 10285 10288 10291 10294 10298 10302 10305 10307 10307 10308 10310 10313 10315 10317 10320 10322 10325 10327 10329 10331 10333 10334 10335